Flag for New Zealand Weather past 2 weeks in Wellington, New Zealand

Now
55 °F

Sprinkles. Low clouds.


Feels Like: 50 °F
Forecast: 55 / 60 °F
Wind: 28 mph from South

Location: Wellington Airport


UV Index: 0 (Low)

Visibility: 3 mi


Pressure: 30.04 "Hg

Humidity: 94%

Dew point: 54 °F

Location of WellingtonLocation

Historic Weather in Wellington

°F

Wellington temperature yesterday

Maximum temperature yesterday: 64 °F (at 3:00 PM)
Minimum temperature yesterday: 55 °F (at 9:00 PM)
Average temperature yesterday: 59 °F

Past Weeks' High & Low Weather Summary

 TemperatureHumidityPressure
High70 °F (Apr 3, 12:30 PM)100% (Apr 6, 5:00 AM)30.36 "Hg (Apr 6, 5:00 AM)
Low52 °F (Apr 13, 4:00 AM)60% (Apr 3, 12:30 PM)29.71 "Hg (Apr 12, 12:30 AM)
Average59 °F89%30.10 "Hg
* Reported Apr 2 2:00 AM — Apr 17 1:00 AM, Wellington, Weather by CustomWeather, © 2014

Note: Actual official high and low records may vary slightly from our data, if they occured in-between our weather recording intervals... More about our weather records

Advertising

Historic Weather Conditions — Data for Previous 24 hours

 ConditionsComfort  
Time TempWeatherWind HumidityBarometerVisibility
1:00 AM
Apr 17
55 °FSprinkles. Low clouds.28 mph94%30.04 "Hg3 mi
12:30 AM55 °FLight rain. Passing clouds.25 mph94%30.04 "Hg4 mi
12:00 AM55 °FLight rain. Overcast.26 mph94%30.04 "Hg3 mi
11:30 PM
Apr 16
55 °FLight rain. Low clouds.24 mph94%30.04 "Hg4 mi
11:00 PM55 °FLight rain. Low clouds.24 mph94%30.04 "Hg4 mi
10:30 PM55 °FLight rain. Overcast.24 mph94%30.04 "Hg5 mi
10:00 PM55 °FLight rain. Overcast.21 mph94%30.04 "Hg6 mi
9:30 PM55 °FLight rain. Overcast.22 mph94%30.04 "Hg5 mi
9:00 PM55 °FRain. Passing clouds.18 mph100%30.01 "Hg3 mi
8:30 PM57 °FLight rain. Overcast.18 mph94%30.01 "Hg4 mi
8:00 PM57 °FLight rain. Passing clouds.17 mph94%30.01 "Hg6 mi
7:30 PM57 °FRain showers. Mostly cloudy.14 mph94%30.01 "Hg4 mi
7:00 PM57 °FDrizzle. Low clouds.18 mph94%29.98 "HgN/A
6:30 PM57 °FPassing clouds.15 mph94%29.95 "HgN/A
6:00 PM57 °FMostly cloudy.17 mph94%29.95 "HgN/A
5:30 PM57 °FLow clouds.14 mph94%29.95 "HgN/A
5:00 PM57 °FLow clouds.14 mph100%29.95 "HgN/A
4:30 PM57 °FLight rain. Low clouds.15 mph100%29.92 "Hg4 mi
4:00 PM57 °FRain. Partly sunny.15 mph100%29.92 "Hg2 mi
3:30 PM63 °FPartly sunny.8 mph94%29.92 "HgN/A
3:00 PM64 °FPartly sunny.14 mph88%29.89 "HgN/A
2:30 PM63 °FOvercast.16 mph88%29.89 "HgN/A
2:00 PM63 °FOvercast.13 mph88%29.89 "HgN/A
1:30 PM63 °FOvercast.16 mph88%29.89 "HgN/A
1:00 PM63 °FPartly sunny.20 mph94%29.89 "HgN/A
12:30 PM63 °FCloudy.21 mph88%29.89 "HgN/A
11:00 AM61 °FLight rain. Passing clouds.13 mph94%29.92 "HgN/A
10:30 AM59 °FLight rain. More clouds than sun.12 mph100%29.92 "HgN/A
10:00 AM59 °FLight rain. Broken clouds.12 mph100%29.92 "Hg5 mi
9:30 AM59 °FHeavy rain. Partly sunny.15 mph100%29.92 "Hg2 mi
9:00 AM61 °FRain. More clouds than sun.13 mph94%29.89 "Hg4 mi
8:30 AM61 °FLight rain. Broken clouds.12 mph94%29.89 "Hg6 mi
8:00 AM61 °FSprinkles. Partly sunny.8 mph88%29.89 "HgN/A
7:30 AM61 °FSprinkles. Partly sunny.7 mph88%29.89 "HgN/A
7:00 AM59 °FSprinkles. Overcast.5 mph94%29.92 "HgN/A
6:30 AM59 °FSprinkles. Mostly cloudy.5 mph94%29.92 "HgN/A
6:00 AM59 °FSprinkles. Broken clouds.7 mph100%29.92 "HgN/A
5:30 AM59 °FDrizzle. Mostly cloudy.7 mph100%29.92 "HgN/A
5:00 AM59 °FPassing clouds.6 mph100%29.92 "Hg3 mi
4:30 AM59 °FLight rain. Passing clouds.5 mph100%29.95 "Hg2 mi
4:00 AM61 °FRain. Passing clouds.6 mph88%29.95 "Hg2 mi
3:30 AM61 °FLight rain. Partly cloudy.12 mph88%29.95 "Hg6 mi
3:00 AM61 °FLight rain. Mostly cloudy.15 mph94%29.95 "HgN/A
2:30 AM61 °FLight rain. Mostly cloudy.17 mph94%29.95 "HgN/A
2:00 AM61 °FLight rain. Passing clouds.18 mph94%29.95 "HgN/A
Weather by CustomWeather, © 2014

See weather overview